Wind_Speed
10 3 4 6 6 9 7 3 2 2 3 5 6 6 7 8 7 1 9 8 5 8 4 3 4 6 5 7 8 13 16 19 25 23 21 24 25 27 29 32 33 30 28 25 25 28 28 29 29 24 23 25 23 22 24 24 24 24 22 22 20 19 18 16 15 14 14 14 16 15 13 11 8 6 7 7 7 6 5 6 7 9 8 6 6 6
9 5 6 9 9 9 7 3 2 4 5 5 4 5 7 7 7 4 8 4 5 7 2 4 2 6 4 4 6 9 12 13 21 22 21 25 23 25 28 31 35 32 30 30 29 29 29 30 30 26 24 26 25 23 25 25 25 24 22 21 20 19 18 17 15 13 12 12 13 14 14 13 10 9 7 5 6 7 7 8 8 10 11 10 8 6
5 5 10 12 9 7 4 2 4 5 5 4 4 5 5 4 5 6 6 6 6 4 2 5 5 6 5 6 6 4 8 13 26 30 30 31 26 25 26 29 33 30 30 33 33 31 30 32 32 27 25 27 26 24 25 25 24 23 22 20 19 19 18 16 14 13 12 13 14 13 13 12 10 10 7 5 7 8 8 10 10 11 13 12 11 10
4 7 12 11 7 5 1 3 5 5 4 3 2 3 5 5 3 4 3 4 5 2 1 3 5 6 6 6 6 2 4 10 20 26 30 32 30 29 29 31 34 32 32 35 36 34 32 33 33 29 27 27 25 25 25 25 24 24 22 20 19 18 18 17 16 15 14 15 16 14 13 11 9 9 7 6 10 11 11 11 12 13 14 13 14 13
7 6 5 6 7 6 3 3 2 3 3 4 4 3 5 7 3 1 3 2 4 4 2 5 5 5 5 5 6 5 4 10 14 16 18 18 22 30 31 31 33 34 34 35 37 35 32 33 34 31 30 27 25 25 25 25 24 24 23 20 19 18 18 18 18 16 14 15 17 17 15 13 11 11 8 9 13 12 12 13 12 12 13 15 15 14
9 7 9 7 4 4 5 2 2 3 0 4 5 6 7 8 6 1 2 3 5 5 3 5 4 6 6 4 7 6 2 8 10 11 11 10 15 28 33 32 32 33 33 34 34 34 32 32 33 32 32 30 27 26 25 25 24 23 23 21 19 18 18 18 18 16 14 15 15 16 16 15 14 14 12 11 13 12 12 13 12 12 12 13 14 13
5 6 8 7 3 2 4 1 2 4 2 3 4 5 5 7 7 3 2 3 3 2 3 5 5 3 6 6 7 5 3 6 6 7 8 10 17 29 33 32 33 31 31 33 33 34 33 32 32 32 33 32 30 28 26 25 24 23 23 22 20 19 19 19 17 16 16 15 14 14 15 15 16 17 15 12 12 12 11 11 12 13 12 12 12 12
1 2 3 6 4 1 1 2 4 4 4 3 5 4 5 6 6 3 2 1 3 3 2 2 5 2 3 6 7 6 4 3 4 7 9 9 14 27 33 32 34 34 33 34 34 34 34 33 32 32 33 32 30 29 28 27 25 24 24 22 21 20 20 19 17 17 16 15 15 16 16 16 16 15 15 14 12 11 10 11 12 12 12 12 11 11
2 4 4 5 4 1 3 4 6 5 4 5 6 4 2 4 6 6 4 3 2 1 3 4 1 2 3 6 7 7 4 3 6 6 7 6 9 21 29 29 26 27 30 31 31 32 32 31 32 31 31 31 29 29 29 29 28 25 24 21 20 20 21 20 18 18 17 16 17 18 17 17 16 15 15 15 13 12 10 11 12 12 12 11 11 11
3 5 6 5 4 3 4 6 7 7 6 6 4 2 2 3 5 6 5 3 3 4 2 5 1 1 4 6 4 4 3 4 6 5 7 13 20 24 24 26 24 26 30 29 28 30 30 30 30 29 29 29 29 29 29 30 30 28 26 22 20 21 23 22 20 19 18 18 18 17 16 16 17 17 16 15 14 13 11 12 12 11 11 12 12 11
4 4 4 3 4 3 4 4 6 9 6 4 1 2 4 2 2 4 3 1 4 2 4 5 3 3 3 5 3 1 3 5 5 5 7 14 20 22 22 21 22 26 28 27 28 29 29 27 26 27 27 29 29 29 29 31 32 31 29 26 23 24 27 25 23 21 20 20 19 17 15 16 17 17 17 15 14 13 12 12 12 12 12 12 12 12
5 2 2 3 7 5 3 4 6 8 4 3 3 3 5 4 3 2 4 4 3 3 5 2 3 3 3 4 4 2 3 5 7 7 7 10 15 21 23 22 20 21 20 19 21 24 27 26 25 25 25 28 30 29 29 31 32 32 31 29 27 29 31 28 25 24 22 22 20 18 16 16 16 16 16 15 14 14 13 13 12 12 12 11 11 11
6 4 3 4 9 8 2 1 5 7 4 2 3 4 4 3 3 3 3 2 1 5 4 3 5 1 4 5 4 1 3 3 5 9 11 13 17 21 22 21 23 24 21 18 16 15 18 20 23 25 24 25 28 28 28 30 33 33 32 30 30 33 34 31 28 26 24 23 22 20 18 17 16 16 16 15 13 13 12 13 13 13 12 11 11 10
4 5 3 1 5 8 4 2 2 3 1 3 3 3 3 2 0 1 2 1 1 3 5 3 3 1 3 4 5 3 3 8 13 17 18 19 19 18 21 23 23 21 17 13 11 10 11 11 13 19 23 25 27 27 26 28 32 32 31 32 32 33 35 34 31 28 26 24 23 21 19 18 16 16 16 15 13 13 12 12 13 13 12 12 11 10
2 4 4 2 2 8 6 5 6 4 2 3 4 5 5 4 4 2 1 1 2 3 4 2 2 0 2 3 6 1 8 15 21 22 20 20 22 22 24 24 20 16 14 10 6 5 7 7 8 9 14 19 25 27 25 26 29 29 29 33 35 34 33 34 32 30 27 25 24 23 20 18 15 15 16 15 13 12 11 10 11 11 12 11 11 10
2 4 5 4 9 10 4 3 6 2 1 4 1 4 3 4 5 3 3 5 4 1 2 2 2 3 2 4 6 2 9 13 18 20 18 19 25 28 25 23 21 17 13 9 8 7 5 7 7 5 5 9 19 26 26 25 26 25 25 29 33 34 32 33 33 30 26 24 24 24 21 18 16 14 15 14 12 11 10 9 8 8 9 9 9 9
3 5 6 3 12 9 2 1 1 3 2 3 2 1 4 5 7 4 2 2 3 3 2 2 1 1 0 3 5 2 6 8 11 12 15 19 25 27 24 22 21 19 15 12 11 11 9 8 8 7 8 9 11 17 19 20 20 21 21 22 28 33 32 31 30 27 23 22 23 22 20 18 17 15 14 13 12 11 9 9 7 6 5 5 6 7
2 3 8 3 4 4 5 4 2 3 4 2 2 3 2 1 5 4 0 1 3 1 3 3 3 2 1 3 4 2 5 6 8 9 12 18 22 24 22 21 19 17 17 15 14 13 11 10 10 9 11 11 9 8 10 11 12 15 18 19 25 32 32 28 27 26 23 21 20 19 18 18 17 16 15 12 11 10 10 9 8 7 5 4 3 4
2 1 7 6 4 3 3 3 2 4 1 2 5 3 2 2 1 1 1 1 2 2 2 4 3 2 2 2 5 4 4 5 6 9 12 13 18 22 22 19 16 15 15 14 14 14 12 12 11 9 10 10 9 7 7 7 8 11 13 12 18 28 30 26 25 26 25 23 19 18 18 18 16 14 14 13 10 9 9 9 9 8 7 6 4 3
2 1 4 6 7 7 5 3 2 3 4 3 5 3 2 3 3 2 2 3 3 3 2 3 1 2 2 2 4 4 2 5 4 6 9 11 18 23 22 19 16 14 13 12 13 13 12 12 12 10 10 10 10 8 7 7 7 8 9 8 12 19 23 23 22 23 25 24 20 18 18 18 15 11 11 13 11 9 9 9 9 9 8 8 7 6
3 2 2 6 8 6 4 1 2 2 0 1 1 2 2 1 2 1 2 0 3 3 1 1 2 3 4 2 4 3 5 6 5 6 6 11 19 23 23 20 17 14 11 10 11 11 11 12 11 12 11 10 10 9 8 8 7 7 8 10 10 11 16 19 20 21 23 22 20 20 19 17 14 11 10 11 11 10 10 9 9 9 8 7 7 7
2 2 1 3 5 3 4 6 5 2 0 1 2 3 2 2 4 3 4 4 0 3 3 3 1 5 4 2 5 3 4 5 9 11 8 12 21 23 22 20 17 14 11 10 11 10 10 11 10 11 11 10 10 9 8 9 8 6 6 8 7 8 12 17 18 17 19 21 20 21 21 19 17 15 14 13 11 10 10 10 10 10 9 8 8 8
1 3 2 1 3 4 7 10 9 9 6 0 3 3 3 3 5 4 3 5 3 0 2 4 2 4 5 3 5 4 5 3 15 19 13 15 21 22 21 19 17 15 14 12 12 11 10 10 9 10 11 10 10 9 8 9 8 6 6 7 8 10 13 18 19 18 19 21 20 21 22 21 19 18 16 14 12 11 12 11 11 12 11 11 11 9
3 3 2 2 4 5 8 10 9 9 7 3 1 3 3 2 3 4 3 3 2 1 1 3 1 4 5 4 3 4 7 7 18 21 18 18 20 21 20 18 17 16 15 14 12 11 11 10 9 10 11 10 9 8 8 9 8 8 8 8 9 12 15 18 20 20 22 23 21 20 21 18 17 18 17 15 13 13 14 14 14 14 14 14 14 14
1 1 2 1 3 5 6 7 7 7 6 3 3 4 4 3 5 4 2 3 2 1 3 4 1 3 4 3 2 4 8 11 14 17 20 20 19 21 20 18 17 15 14 13 12 11 12 12 11 11 11 10 9 8 8 8 9 10 10 9 9 12 15 16 17 18 21 21 19 19 17 15 18 21 19 17 17 17 19 19 17 16 16 15 17 17
2 1 3 4 2 1 1 0 2 5 5 3 4 6 4 4 6 4 2 4 2 3 2 4 3 4 5 5 6 7 8 9 9 13 18 18 18 20 19 17 16 14 13 13 12 12 13 11 9 10 11 10 9 9 9 9 8 9 10 10 10 12 13 14 15 16 18 18 17 17 15 16 20 21 18 17 19 21 22 23 22 21 20 18 20 22
2 1 2 3 5 4 4 3 2 4 4 4 6 8 6 5 6 5 3 2 2 1 4 1 5 3 1 3 5 5 7 6 7 11 13 12 15 18 16 14 14 13 14 13 12 13 14 13 11 10 10 10 10 9 9 9 9 9 9 9 10 11 11 12 14 16 17 18 17 16 16 16 18 19 17 17 19 20 19 20 21 20 17 18 22 25
3 2 1 1 2 3 5 7 8 7 6 6 6 7 6 6 6 4 0 3 4 2 4 2 5 4 4 4 4 4 5 5 4 10 11 11 11 13 15 15 14 13 14 13 12 13 14 15 14 12 11 12 11 10 8 7 8 9 8 8 9 9 9 10 12 13 14 15 14 13 14 14 15 16 16 15 16 15 12 12 14 13 13 17 21 22
3 1 2 2 3 5 6 6 8 7 6 6 5 5 6 6 6 4 4 5 2 1 5 4 3 1 3 2 2 4 5 6 6 10 16 14 12 12 13 15 16 16 17 15 12 12 13 14 14 13 13 14 13 12 10 8 7 7 8 9 9 9 8 8 9 10 10 9 8 7 8 9 9 9 9 9 9 9 8 8 9 10 13 16 18 17
4 2 2 1 2 4 6 7 8 7 7 7 6 6 7 6 5 4 4 4 2 2 6 3 4 2 2 3 4 6 10 14 18 14 9 7 8 13 13 12 12 11 12 15 16 16 14 14 13 11 10 10 10 9 7 6 6 5 5 7 8 8 8 9 9 9 9 8 8 7 6 6 6 5 5 4 3 4 5 6 5 7 8 9 10 10
2 1 1 2 3 4 5 6 8 7 7 7 7 6 6 7 7 5 3 4 4 2 2 6 8 4 5 6 7 14 19 20 21 20 17 15 11 3 5 11 13 11 9 11 16 19 16 15 14 11 9 9 9 9 7 6 7 6 4 5 5 5 7 8 9 9 9 8 6 6 7 7 6 5 4 3 2 2 1 1 2 3 4 4 5 6
2 0 1 4 3 3 4 4 6 6 8 8 7 6 5 5 4 3 2 3 4 4 7 9 8 4 6 7 8 13 17 17 16 17 18 18 20 21 15 5 4 11 17 18 18 20 19 17 16 15 13 10 9 11 10 7 7 8 6 5 5 7 7 5 5 8 9 7 6 6 7 6 5 4 3 2 1 1 1 1 1 2 3 4 5 6
3 2 1 2 2 3 3 4 6 7 7 6 4 5 5 2 3 5 4 5 6 6 5 4 2 3 5 7 8 8 10 12 13 16 18 18 18 21 23 22 19 11 7 19 22 22 20 20 20 18 15 11 8 9 9 5 7 11 10 8 7 7 5 2 3 5 5 5 5 5 5 5 5 4 4 3 4 5 6 6 6 5 5 5 7 8
1 3 2 2 2 2 1 5 7 5 2 4 2 7 7 3 5 7 4 7 7 5 4 4 2 5 8 9 8 7 8 10 14 17 19 20 19 19 22 23 24 23 14 5 15 18 18 20 21 19 16 13 10 11 9 4 4 7 8 7 6 6 4 3 3 4 4 5 6 5 5 5 6 6 6 7 8 9 10 10 10 10 9 9 9 9
3 3 1 2 3 1 2 6 5 3 4 2 5 9 9 6 6 7 7 10 10 8 8 9 8 8 11 13 14 14 12 13 19 24 23 22 20 17 19 21 21 21 19 12 10 12 15 18 18 18 16 13 12 12 9 2 1 4 4 3 5 6 6 6 6 5 6 6 5 6 6 6 5 7 8 9 9 9 8 7 7 8 9 10 11 11
5 4 2 2 3 2 2 3 2 4 3 4 8 8 8 7 7 6 7 10 11 8 8 8 7 8 12 16 19 18 13 12 19 25 24 23 22 20 19 20 21 21 17 12 12 12 12 12 11 10 9 7 7 9 8 3 2 2 5 4 4 5 6 7 6 6 6 6 6 6 6 5 6 7 8 8 9 7 6 5 4 5 6 7 9 10
5 4 3 2 1 3 4 3 2 2 6 5 5 5 6 5 4 2 4 6 9 10 8 6 6 9 12 17 21 19 14 12 14 19 23 23 21 19 18 18 20 20 17 11 9 8 6 5 4 3 2 2 1 3 7 7 3 2 3 5 6 6 6 7 7 7 8 8 9 8 6 6 7 9 9 10 9 8 6 6 6 6 6 6 7 9
6 5 5 4 2 3 4 1 1 1 2 2 1 5 8 9 7 3 3 4 6 13 15 10 7 9 12 15 20 20 14 10 6 10 20 22 19 18 17 17 17 15 14 13 10 6 5 3 2 3 4 3 1 1 4 7 6 4 4 6 7 8 9 9 8 8 9 10 9 8 7 8 9 10 10 11 10 10 11 11 11 10 8 7 7 8
4 2 4 4 2 3 4 2 1 2 2 2 3 7 12 15 12 6 3 3 6 13 17 14 9 11 13 15 18 16 10 6 2 9 18 20 18 18 19 17 16 14 13 12 10 9 9 7 6 4 5 6 7 7 7 7 6 7 9 10 10 11 11 11 11 11 11 11 10 10 10 11 10 10 11 12 13 14 15 14 13 13 11 9 9 9
7 5 4 4 2 2 3 3 1 1 1 3 5 9 15 17 11 5 2 1 8 14 17 16 13 12 14 15 16 10 5 2 3 9 16 18 16 17 19 18 17 16 14 13 12 13 12 9 8 9 9 8 8 8 8 8 9 9 10 11 12 13 14 14 15 14 15 15 14 14 14 14 14 14 14 15 15 16 16 16 15 15 15 13 12 10
4 3 3 3 3 1 2 2 1 1 1 4 8 12 15 13 7 4 2 3 9 13 15 17 16 15 13 12 11 8 6 9 11 12 15 17 17 18 19 19 18 17 16 16 16 17 16 15 14 13 12 12 10 8 8 10 12 12 13 14 16 17 17 17 18 18 18 18 18 17 17 16 15 15 14 14 14 14 14 16 17 18 18 17 15 12
3 2 2 3 2 3 2 2 2 1 1 5 9 12 12 6 1 1 2 6 9 11 14 14 13 14 14 11 10 11 13 15 16 17 17 17 18 19 19 19 19 19 18 18 19 19 19 19 18 17 16 16 13 12 12 13 15 16 17 17 17 17 16 17 18 18 18 18 17 17 17 16 16 16 16 16 15 15 16 19 20 21 21 19 16 14
2 1 2 3 2 2 2 3 3 2 3 4 6 8 8 3 2 3 5 8 9 13 17 15 13 14 17 15 14 16 16 16 17 19 20 19 20 20 21 21 21 20 19 19 20 21 21 22 22 21 20 19 16 14 15 16 18 19 19 18 17 17 18 19 19 18 18 18 18 18 18 17 17 16 17 17 17 18 20 21 22 22 21 18 14 14
4 1 1 1 1 2 3 2 1 4 4 2 3 1 2 5 8 9 9 11 14 18 19 18 17 18 18 17 17 17 17 18 19 20 21 22 22 22 23 23 23 22 21 20 20 21 22 25 26 26 25 23 21 19 18 18 19 21 21 19 17 17 19 20 21 20 19 19 19 19 19 19 19 20 20 20 21 21 22 22 22 22 20 16 13 14
3 2 1 1 1 2 2 2 1 2 2 8 8 5 9 15 18 18 16 15 16 17 17 17 18 19 18 18 18 17 17 18 18 20 22 24 25 25 25 24 24 23 24 25 24 22 23 25 25 25 25 26 26 25 25 24 23 22 21 19 17 17 17 18 19 20 20 20 20 21 20 20 21 21 21 20 19 20 21 21 21 20 19 16 15 15
4 8 6 2 2 3 2 5 11 12 13 15 15 15 20 21 19 19 18 16 15 15 16 16 16 17 18 18 18 17 18 19 20 21 23 24 26 27 27 28 27 25 25 26 27 26 26 27 26 24 23 22 20 19 20 19 18 17 16 16 17 16 15 15 15 17 19 19 20 20 22 23 22 20 19 19 18 19 21 21 20 20 19 19 17 16
6 11 7 1 2 2 1 7 14 14 14 18 21 22 23 21 19 19 17 15 15 14 14 14 15 16 17 17 17 18 19 20 21 22 23 24 25 26 26 27 28 27 26 26 27 28 29 29 28 27 25 23 20 17 16 16 16 15 16 17 18 19 19 18 18 17 17 18 19 19 18 19 20 20 20 20 21 21 20 19 19 18 18 18 16 16
4 7 4 2 3 1 1 9 17 14 13 18 21 21 21 22 21 21 18 16 16 14 13 14 15 15 16 17 17 18 20 21 21 22 23 23 24 25 25 25 26 26 26 27 28 29 30 29 27 25 24 24 23 23 22 22 22 22 22 22 22 23 25 24 22 20 19 19 21 22 21 20 21 21 21 22 23 22 19 16 15 15 16 16 16 17
6 6 4 3 3 2 3 12 18 14 12 17 21 21 21 22 22 21 19 17 17 16 16 16 16 16 17 18 18 19 21 22 22 23 23 24 24 24 25 25 25 25 26 26 26 26 27 28 27 26 25 24 23 24 25 26 27 27 27 26 26 27 28 28 27 26 24 21 21 23 25 25 24 25 25 25 24 23 20 18 17 18 19 20 19 17
7 3 3 4 4 3 3 8 11 6 5 12 19 20 21 20 19 18 18 17 18 18 18 18 18 17 18 18 19 20 22 23 23 23 24 24 24 24 24 24 24 24 23 23 23 23 24 25 26 26 26 25 23 22 23 24 25 27 28 29 28 28 29 30 30 30 29 26 23 22 23 23 22 23 26 26 23 22 22 21 21 21 21 20 17 15
7 3 3 4 3 2 4 9 10 6 4 10 16 18 18 17 16 17 17 16 17 17 16 17 18 20 20 20 20 21 22 23 22 22 23 23 23 23 23 23 22 22 22 22 23 24 25 25 24 24 24 24 23 22 22 22 23 24 25 26 26 25 25 27 28 29 29 28 26 24 22 21 21 21 23 22 21 22 23 22 20 20 19 18 17 16
Wind_Direction
194 177 233 227 233 237 228 211 256 322 360 338 332 321 325 327 306 147 141 169 135 121 183 204 209 252 235 220 214 171 149 130 138 148 152 157 159 158 159 159 164 168 168 169 168 169 168 165 167 170 178 186 192 197 198 193 188 182 174 165 157 152 150 148 148 142 136 135 134 139 147 147 145 157 164 163 165 172 172 164 151 149 153 160 172 175
193 194 232 227 229 227 205 146 63 20 12 350 347 332 329 328 316 21 100 123 74 95 263 334 4 290 307 289 261 164 137 135 148 151 155 164 170 170 163 161 164 164 167 168 167 172 172 168 172 178 181 185 188 191 194 192 185 182 176 167 161 155 155 156 151 140 132 136 137 140 147 149 152 154 144 141 162 171 167 165 161 157 155 154 161 161
203 222 240 231 226 222 204 88 60 42 22 2 358 343 318 303 321 1 56 76 64 69 297 355 13 310 320 332 315 131 132 155 160 160 164 167 175 179 168 163 165 161 167 172 171 176 176 173 177 180 180 184 189 188 190 192 186 183 181 173 169 164 163 162 153 150 148 147 148 152 154 155 158 155 140 115 129 139 140 150 157 150 143 139 142 151
203 236 242 226 197 191 199 41 44 38 15 330 307 320 291 288 343 346 347 69 72 70 141 35 13 316 321 349 337 6 124 150 151 155 164 170 181 185 172 166 168 164 169 176 176 178 178 177 178 182 182 181 186 187 189 194 190 186 185 181 177 173 169 165 159 164 166 158 158 163 159 156 154 145 139 120 117 115 111 121 136 139 136 131 128 141
228 228 208 178 164 162 119 59 44 46 353 298 255 242 264 286 331 4 301 14 37 13 68 65 23 315 319 350 309 311 103 138 142 142 159 177 184 181 172 168 171 170 174 178 177 178 179 179 179 183 185 185 187 189 190 196 195 191 189 185 183 181 177 172 170 173 172 166 166 169 164 163 162 151 146 138 122 112 106 108 117 129 138 143 142 143
238 203 143 126 155 153 109 104 189 146 296 304 261 234 238 265 285 260 309 32 49 340 321 89 54 300 307 321 278 285 98 156 160 144 166 184 162 164 169 172 175 174 176 181 179 177 180 181 181 185 189 191 192 192 191 197 200 198 194 189 188 189 184 182 181 178 176 174 173 176 173 170 167 158 150 138 121 111 108 105 107 113 122 139 150 154
228 196 149 118 88 63 74 347 262 153 159 288 269 268 267 269 279 266 300 49 108 256 260 122 119 269 304 309 276 268 263 217 177 122 141 145 132 150 164 170 175 176 175 180 181 179 181 184 185 188 193 195 196 194 191 194 201 204 202 194 192 195 194 191 188 181 179 178 176 176 171 164 160 153 144 133 121 113 111 111 111 108 107 113 121 137
186 149 123 104 96 63 110 256 260 185 165 236 246 282 310 305 308 303 309 303 202 226 295 128 139 179 287 285 274 281 285 224 152 111 117 125 134 152 164 170 175 178 177 177 179 181 184 187 190 193 195 198 200 197 192 192 198 206 209 203 197 199 201 198 191 184 182 178 172 169 166 161 155 147 138 132 128 124 124 117 105 97 96 100 100 111
152 134 149 128 120 175 197 225 246 212 193 225 219 214 279 341 345 335 329 296 236 121 314 302 145 163 271 269 276 293 291 146 133 127 117 102 104 132 157 170 169 171 178 179 180 185 190 194 197 199 201 203 203 201 198 196 197 202 208 207 205 206 207 205 198 189 184 180 172 164 161 157 150 145 140 138 136 133 127 112 100 93 90 93 94 93
189 175 174 140 130 183 216 229 243 239 219 211 213 200 71 35 341 321 314 312 38 78 250 282 336 123 282 272 279 318 277 174 153 154 120 96 90 102 138 166 171 172 180 185 185 187 194 201 203 204 206 208 208 206 205 202 200 200 201 203 208 216 215 209 203 196 188 183 175 164 158 154 152 151 146 143 140 131 120 108 103 102 96 91 90 89
240 192 174 140 155 205 256 242 249 256 231 163 177 339 38 32 286 282 291 33 65 25 246 245 254 234 275 281 269 304 229 179 135 137 117 102 101 99 110 134 158 171 176 184 189 189 194 200 204 207 207 209 211 211 212 210 206 203 201 201 208 221 222 213 206 201 193 187 179 166 160 160 157 156 153 148 142 132 122 114 108 105 103 99 95 95
285 189 168 196 191 213 293 301 295 293 292 76 71 44 36 352 333 350 339 39 79 269 259 273 308 254 236 272 266 230 173 149 132 131 121 105 99 94 90 94 109 127 139 154 172 186 195 198 203 208 209 211 212 213 217 217 214 208 205 205 209 219 222 215 207 204 197 190 182 169 166 170 165 160 158 151 142 134 126 117 110 108 106 105 104 103
281 235 212 195 192 197 194 303 303 311 318 67 71 67 61 332 342 13 334 12 165 244 259 2 17 12 223 256 263 209 80 84 133 130 118 110 99 92 91 88 90 99 108 115 127 152 177 190 203 212 215 216 215 216 220 221 219 214 210 209 209 213 220 217 208 205 202 192 183 175 171 175 172 163 158 153 145 138 128 118 113 111 106 102 103 103
298 299 276 200 179 186 166 136 234 291 283 152 149 119 126 180 355 318 284 340 257 266 290 323 43 13 283 286 276 240 100 76 91 103 103 103 101 98 95 92 91 93 98 105 114 133 152 163 189 212 221 222 220 220 221 221 219 215 213 211 204 203 215 219 210 204 203 195 184 179 176 178 174 164 158 157 152 141 132 122 117 115 110 103 99 98
295 316 273 283 150 177 181 173 187 220 247 216 191 152 150 158 151 182 190 141 226 266 307 330 107 289 289 269 278 288 96 89 91 99 99 92 94 100 97 93 93 89 84 91 98 132 175 169 150 179 209 218 220 220 219 218 215 214 214 212 205 200 208 218 214 205 202 195 185 181 182 183 177 166 162 162 159 150 140 131 123 119 115 109 105 100
205 245 243 194 159 165 179 201 192 180 314 277 268 110 154 178 149 153 179 178 182 208 312 303 197 211 209 258 282 42 89 93 100 106 105 95 95 99 96 93 95 92 84 85 86 97 150 171 148 145 170 195 211 214 213 210 209 213 214 210 207 203 205 215 215 204 199 195 186 183 186 188 183 174 170 169 168 163 152 142 134 124 117 112 111 107
181 250 288 171 154 154 141 272 181 106 124 297 325 144 213 183 133 121 234 206 103 75 269 238 228 257 296 291 275 157 109 99 106 110 105 100 98 98 98 99 100 101 99 101 103 100 112 136 133 115 114 138 181 200 205 206 207 216 218 215 212 207 205 210 206 195 194 193 186 185 190 193 189 183 181 177 172 170 165 156 148 143 138 125 119 114
141 258 302 301 155 169 191 206 345 63 107 36 302 258 274 71 104 110 117 7 83 108 253 221 196 197 161 275 276 193 150 136 130 122 103 100 99 98 100 103 106 108 108 109 115 114 116 132 137 126 124 130 140 160 183 196 203 209 212 216 214 206 202 202 196 189 191 191 187 191 199 202 196 189 187 183 172 172 177 173 168 173 178 176 155 135
56 338 298 313 345 334 205 168 17 336 332 186 241 274 44 80 53 57 107 127 148 176 276 264 227 171 128 250 284 269 191 160 140 126 116 110 106 104 107 111 113 117 118 115 117 122 123 129 139 145 147 148 147 154 172 185 194 199 201 207 205 200 198 197 194 191 190 190 194 201 208 211 204 193 188 184 179 182 190 192 189 191 199 212 224 224
62 84 285 313 345 355 359 80 127 294 304 257 257 306 49 146 171 199 185 166 162 171 244 283 321 333 269 226 279 295 74 80 78 110 119 119 114 114 118 121 123 128 133 129 123 126 129 130 135 141 147 156 161 169 179 188 202 203 199 203 197 195 195 191 192 195 191 190 193 197 206 211 206 193 183 182 188 196 201 205 203 203 208 217 232 247
44 86 244 305 343 3 349 295 183 196 350 11 342 357 346 6 80 40 323 239 138 142 189 33 47 286 267 286 322 341 76 80 78 87 96 110 113 118 123 126 129 131 136 142 138 138 140 136 134 137 147 160 165 171 177 186 201 203 199 207 208 203 197 187 188 196 193 187 185 188 197 201 198 192 183 182 192 196 194 199 203 205 208 216 233 248
40 100 175 298 333 333 277 291 325 354 104 138 137 154 163 104 85 51 324 303 342 127 152 140 165 263 262 318 336 15 61 66 99 105 106 113 114 117 122 124 128 129 128 128 129 140 150 146 143 142 145 155 164 169 175 183 195 202 198 200 194 191 192 185 180 182 184 182 180 185 191 193 193 193 188 185 188 185 184 191 197 198 199 204 219 234
66 100 86 290 278 282 292 307 326 328 320 265 144 137 125 111 114 134 222 258 275 289 148 126 137 266 269 319 347 347 337 59 116 121 118 114 115 118 120 121 124 126 128 124 120 128 141 147 158 159 151 153 161 164 168 178 184 178 170 168 158 157 166 172 170 167 174 181 181 184 189 189 191 196 194 192 196 197 196 199 203 206 207 206 208 217
5 78 77 308 294 311 315 315 317 320 331 339 359 72 76 87 112 130 190 216 215 289 77 97 51 280 281 306 319 305 328 69 114 121 118 116 119 121 122 124 126 125 126 127 126 129 129 127 137 155 162 163 165 164 162 169 174 166 157 151 150 153 157 165 170 171 178 184 184 185 188 188 196 203 199 196 204 213 215 217 222 224 223 222 222 223
345 79 103 46 340 338 333 331 334 340 2 4 332 23 49 39 57 64 30 39 33 319 107 111 187 261 275 315 340 339 17 69 103 114 118 122 125 127 130 129 129 130 132 134 135 129 120 109 108 126 148 161 170 173 166 164 168 165 159 153 150 152 156 165 173 177 184 191 191 190 190 196 209 214 213 215 220 224 225 226 230 233 232 236 238 236
134 126 109 121 167 250 265 261 354 340 352 357 331 346 2 19 42 61 68 58 6 307 49 105 171 248 293 3 18 6 34 74 94 101 113 123 126 129 132 133 136 139 140 142 146 144 137 126 114 111 117 128 145 163 174 179 179 172 168 167 162 160 163 169 175 180 185 189 189 192 197 204 213 220 227 233 231 229 229 230 234 239 242 247 251 251
74 61 86 130 177 199 235 262 337 345 333 330 325 327 335 2 29 53 74 99 167 356 350 186 158 173 285 52 51 23 39 71 99 102 103 110 126 134 134 138 146 147 149 148 142 142 140 136 136 127 114 113 120 135 159 177 186 194 196 193 187 184 183 181 183 187 190 192 196 209 219 218 218 223 230 234 233 232 235 237 240 242 242 246 253 256
64 14 327 296 253 264 285 301 320 322 307 302 304 311 323 342 0 24 57 212 167 70 316 238 116 110 205 175 128 95 71 59 99 127 118 100 119 142 147 154 158 153 155 156 146 142 137 129 132 136 133 131 126 123 132 152 169 178 181 187 194 198 201 201 199 201 204 207 214 221 222 214 209 212 216 221 224 221 221 228 233 236 240 247 254 258
103 175 255 288 294 291 298 305 308 304 297 300 300 306 322 334 344 339 276 248 172 167 238 209 97 20 245 176 116 127 113 66 71 140 156 148 152 170 169 165 168 167 166 165 160 158 151 138 130 126 130 135 134 132 130 131 149 159 155 162 174 180 186 189 191 195 195 194 195 195 196 197 200 207 212 220 231 234 234 238 238 239 245 249 254 258
100 176 244 320 332 323 336 330 319 315 308 306 310 314 321 328 342 344 309 311 18 210 219 170 92 39 360 20 40 66 72 64 59 71 106 127 164 185 184 174 170 172 173 172 175 175 169 161 150 130 121 126 131 140 146 146 156 160 147 145 150 156 161 161 159 161 165 169 172 172 171 174 180 188 198 212 242 260 250 246 239 235 238 243 248 252
72 197 206 77 34 346 333 316 310 317 321 318 319 328 347 359 1 10 11 10 22 340 338 58 67 39 341 345 37 55 58 61 58 53 44 25 15 41 177 196 201 203 196 179 174 173 172 170 166 156 143 140 142 145 146 156 169 168 145 131 135 144 155 160 159 156 164 174 175 169 164 162 161 160 158 149 121 105 132 188 226 234 233 233 243 253
93 250 27 72 55 309 291 308 321 343 359 349 337 349 18 29 25 35 40 42 71 52 27 41 51 5 321 341 29 51 57 63 60 48 38 27 25 34 39 32 238 224 217 205 182 172 175 172 166 165 164 159 154 149 146 149 165 171 159 139 150 168 177 184 171 166 176 184 177 169 169 171 176 169 152 146 148 167 195 205 222 257 265 263 268 274
119 104 69 98 111 254 269 355 0 13 14 342 327 1 359 355 66 67 32 29 64 73 59 67 66 332 339 7 24 40 54 63 59 46 41 43 44 43 41 36 27 13 248 211 186 170 169 165 161 164 169 168 159 161 171 165 150 164 171 166 169 183 202 217 167 169 186 181 164 161 167 172 178 175 170 189 209 215 217 219 222 228 242 259 269 273
137 115 145 142 137 250 310 37 24 12 334 268 318 15 359 359 88 94 64 37 46 58 76 98 68 13 18 26 27 32 47 59 58 53 53 53 48 40 38 37 33 33 38 151 174 165 157 153 155 160 165 169 163 162 171 154 122 166 185 192 204 211 206 195 188 202 211 191 175 182 195 193 182 180 193 209 219 224 228 232 232 229 229 236 242 251
168 146 178 157 143 193 37 50 33 286 235 191 41 22 7 22 71 97 83 50 42 48 55 54 44 32 37 38 29 26 35 55 58 52 48 46 41 36 37 33 29 37 53 78 122 143 149 152 157 161 165 174 178 175 177 163 341 260 237 226 241 238 222 213 211 215 227 227 216 211 215 215 204 201 212 221 227 234 238 238 236 234 234 236 240 245
154 154 193 187 153 144 85 95 158 241 279 39 41 21 12 21 28 50 60 38 27 39 59 59 49 42 42 38 28 22 28 52 57 48 40 37 38 40 43 36 29 35 47 69 88 99 118 133 143 153 163 181 195 198 200 176 112 221 223 219 228 230 240 249 232 215 230 244 242 238 235 230 226 230 240 247 252 258 257 250 251 255 257 257 252 249
177 173 172 176 168 136 139 178 205 310 339 5 23 8 13 24 10 37 82 44 14 14 25 43 49 40 37 30 21 16 25 47 50 35 26 27 31 35 36 30 25 29 34 41 56 66 85 117 134 143 124 73 69 191 215 218 206 209 229 233 231 229 251 269 251 230 240 249 247 249 242 223 227 242 257 268 274 277 274 275 282 283 283 285 273 255
194 193 162 154 190 132 126 158 301 346 301 289 339 3 9 8 356 360 86 66 1 359 10 26 40 34 33 26 14 10 23 47 47 12 12 15 15 15 16 13 9 10 14 17 21 22 16 9 321 241 199 173 122 157 236 250 258 279 282 263 252 249 252 254 247 247 256 251 240 236 231 229 238 247 255 264 271 274 278 281 283 285 290 295 290 273
76 82 128 134 146 116 115 130 203 198 217 290 334 355 353 349 348 358 63 55 334 343 6 22 25 26 29 21 11 12 29 50 4 346 357 359 359 2 1 360 358 350 346 354 1 358 355 358 349 305 256 245 249 251 266 285 286 280 275 266 260 261 259 255 251 255 259 249 233 229 233 236 237 237 242 254 263 272 278 280 281 284 290 296 296 284
42 30 50 73 80 118 149 159 185 160 88 352 333 343 343 342 356 34 94 10 319 328 358 14 8 14 23 16 10 18 55 63 329 338 347 342 339 345 345 346 348 342 334 334 333 330 328 326 326 320 308 300 287 267 270 290 292 280 273 269 267 267 266 261 256 254 254 250 247 247 245 241 241 244 250 259 266 273 278 280 282 284 287 292 295 284
18 23 51 56 51 54 154 141 101 109 41 331 322 338 343 341 10 67 166 275 309 323 355 8 355 351 360 2 5 11 9 359 349 344 345 337 328 329 331 333 334 329 324 320 317 317 316 311 309 308 304 304 300 281 273 282 281 277 274 271 268 268 268 266 264 261 259 257 255 254 252 249 251 256 258 260 265 269 271 274 277 279 283 289 292 280
7 7 20 26 42 43 67 102 70 33 285 295 314 346 3 2 34 119 268 287 304 324 347 348 335 342 355 2 11 9 356 349 346 343 341 337 331 327 323 321 322 319 315 311 308 309 312 311 307 300 295 298 293 281 279 279 275 277 279 273 266 265 267 269 268 265 262 260 257 255 255 256 257 256 255 255 257 258 259 263 269 274 278 284 285 271
26 23 5 2 24 48 58 72 57 2 274 278 314 355 23 44 218 276 304 316 342 2 3 353 348 2 11 10 7 1 350 342 339 336 333 330 328 325 320 317 315 311 308 308 305 302 303 305 305 301 296 295 289 283 284 284 282 283 283 278 272 270 270 268 266 264 262 260 258 258 259 260 259 257 256 254 254 258 260 262 265 269 274 279 274 259
20 15 53 16 9 44 44 48 110 221 245 7 42 8 353 20 27 26 17 12 19 18 11 4 2 2 2 359 353 347 342 337 332 327 323 319 316 314 314 316 314 308 303 304 304 303 302 301 299 297 294 291 287 284 284 286 287 286 280 275 277 278 274 268 262 261 260 260 260 261 262 261 261 261 260 260 260 261 262 262 264 266 269 270 262 252
356 343 74 84 48 89 143 183 167 210 328 30 46 50 36 34 33 31 27 23 17 8 360 356 352 347 346 347 344 339 335 330 322 315 312 308 306 305 303 305 310 309 304 299 296 298 303 305 303 299 294 291 286 283 282 282 283 283 279 274 273 276 276 272 267 263 262 262 265 266 265 267 268 267 266 266 264 262 260 259 261 262 258 255 255 255
28 30 46 56 27 50 87 48 35 23 17 28 37 38 36 32 24 17 14 10 4 356 350 347 340 335 335 334 331 329 326 320 313 308 304 301 301 301 299 297 299 302 301 297 293 292 294 299 303 303 302 299 291 282 277 273 272 274 275 271 267 266 268 272 274 272 267 265 267 269 269 270 270 267 265 265 265 265 262 257 256 256 250 245 247 253
31 35 43 73 50 34 39 39 29 14 14 27 29 23 18 14 10 6 2 356 350 343 339 338 333 329 327 324 324 321 316 312 309 305 302 301 299 298 298 297 298 299 297 295 294 293 292 293 297 302 302 298 292 285 275 267 265 267 269 268 267 266 266 268 271 273 272 271 270 270 268 266 264 264 266 267 266 265 260 251 245 243 238 234 239 250
28 37 30 28 51 86 83 31 19 9 12 18 14 8 2 357 354 352 346 344 345 341 338 336 331 328 326 322 320 317 312 311 311 306 302 300 298 296 297 298 298 298 297 293 291 292 294 294 295 299 298 292 289 288 283 277 273 271 268 266 265 266 266 268 267 267 270 274 274 270 266 263 262 263 266 267 263 254 246 239 236 235 239 248 259 264
40 46 18 10 20 11 26 21 14 9 6 360 354 352 351 346 343 343 342 342 343 342 340 335 330 328 326 322 320 318 313 310 310 307 303 300 298 297 298 296 295 295 294 293 292 291 292 292 290 291 291 287 283 283 281 278 275 273 270 268 266 265 267 268 268 266 267 270 272 269 266 264 265 264 264 262 255 245 240 243 248 254 264 272 273 269
41 39 7 34 36 360 356 15 17 14 339 336 340 342 342 341 340 343 344 343 341 339 336 332 326 321 316 315 316 316 313 310 307 303 301 299 297 297 297 296 296 294 292 292 290 286 286 287 288 290 289 286 281 279 278 276 273 272 271 270 268 268 268 268 268 267 266 266 267 267 264 261 261 262 260 255 246 241 245 252 257 264 269 269 263 257
69 67 65 94 150 241 329 356 6 4 314 320 332 335 338 341 342 343 343 341 339 338 332 327 324 319 313 311 311 311 310 309 305 300 298 297 296 296 295 293 292 290 289 288 288 288 288 289 289 290 287 284 281 277 273 270 267 266 267 267 266 266 266 265 264 264 264 264 264 263 260 255 255 258 256 250 245 247 252 257 260 262 260 254 251 251
Height
1467 1472 1474 1474 1471 1469 1466 1465 1464 1463 1463 1462 1462 1462 1461 1461 1453 1443 1443 1442 1441 1449 1454 1454 1456 1455 1456 1456 1452 1450 1452 1457 1462 1465 1469 1472 1473 1476 1477 1479 1481 1484 1486 1488 1491 1493 1495 1498 1501 1503 1505 1507 1510 1512 1514 1516 1518 1519 1519 1520 1519 1520 1520 1521 1523 1524 1525 1525 1526 1526 1526 1526 1527 1527 1527 1527 1528 1529 1529 1530 1530 1531 1531 1531 1532 1532
1467 1473 1472 1467 1465 1463 1462 1461 1460 1461 1462 1461 1463 1464 1463 1463 1457 1445 1445 1445 1441 1449 1455 1454 1456 1456 1456 1457 1453 1450 1452 1458 1461 1462 1466 1469 1473 1476 1477 1478 1480 1483 1487 1489 1491 1493 1495 1498 1500 1503 1504 1506 1509 1510 1512 1515 1516 1518 1518 1519 1519 1520 1520 1521 1522 1524 1524 1525 1525 1525 1526 1526 1526 1527 1527 1528 1528 1529 1529 1530 1531 1532 1532 1532 1533 1533
1470 1471 1465 1460 1460 1459 1459 1458 1459 1460 1461 1462 1463 1466 1467 1463 1458 1452 1448 1447 1444 1450 1455 1454 1456 1458 1456 1455 1454 1452 1452 1456 1458 1458 1461 1465 1470 1474 1476 1477 1479 1483 1486 1488 1491 1493 1495 1498 1500 1502 1504 1506 1508 1509 1511 1513 1515 1516 1517 1518 1519 1520 1520 1521 1522 1523 1524 1524 1525 1524 1525 1525 1526 1527 1528 1528 1528 1529 1529 1530 1531 1532 1533 1534 1534 1535
1472 1466 1457 1455 1456 1457 1458 1457 1458 1460 1461 1463 1463 1467 1468 1462 1462 1463 1456 1451 1451 1453 1456 1456 1457 1458 1456 1455 1454 1454 1454 1454 1455 1456 1458 1461 1465 1470 1472 1474 1477 1481 1484 1487 1489 1492 1494 1497 1499 1501 1503 1505 1507 1508 1510 1512 1513 1515 1516 1518 1519 1520 1520 1521 1522 1522 1523 1524 1524 1524 1525 1525 1526 1526 1527 1528 1528 1529 1529 1530 1531 1532 1533 1534 1534 1535
1464 1456 1451 1453 1454 1455 1458 1457 1458 1462 1464 1463 1462 1464 1464 1459 1462 1464 1458 1454 1454 1455 1455 1457 1464 1462 1456 1458 1458 1454 1454 1455 1455 1456 1457 1459 1461 1466 1471 1472 1475 1479 1482 1485 1488 1491 1493 1495 1497 1500 1502 1504 1505 1507 1508 1510 1512 1514 1515 1517 1518 1519 1520 1520 1521 1522 1522 1523 1523 1524 1524 1525 1525 1526 1527 1528 1528 1529 1530 1530 1531 1532 1533 1534 1534 1535
1456 1451 1450 1453 1455 1455 1457 1458 1458 1462 1466 1466 1461 1459 1458 1457 1459 1460 1457 1458 1464 1467 1458 1459 1477 1476 1459 1458 1460 1455 1455 1456 1454 1454 1455 1458 1460 1464 1468 1471 1474 1477 1481 1483 1486 1489 1492 1494 1497 1499 1501 1502 1504 1506 1507 1509 1511 1513 1515 1516 1517 1518 1519 1520 1520 1521 1522 1522 1523 1523 1523 1524 1524 1525 1526 1527 1528 1529 1530 1530 1531 1532 1533 1533 1534 1535
1452 1449 1448 1451 1454 1455 1457 1459 1457 1459 1466 1469 1461 1455 1455 1455 1457 1458 1458 1463 1472 1473 1460 1458 1479 1484 1468 1461 1459 1455 1456 1456 1454 1454 1455 1458 1460 1463 1467 1470 1473 1476 1479 1481 1484 1486 1489 1492 1495 1497 1499 1501 1502 1504 1506 1508 1510 1511 1513 1514 1515 1517 1518 1519 1519 1520 1521 1521 1522 1523 1523 1523 1523 1524 1525 1526 1527 1528 1529 1530 1531 1532 1532 1533 1533 1534
1449 1449 1449 1449 1452 1455 1459 1461 1457 1456 1465 1468 1458 1453 1455 1455 1457 1457 1457 1463 1466 1465 1463 1460 1469 1481 1478 1466 1457 1455 1458 1458 1455 1455 1456 1458 1460 1462 1465 1468 1471 1474 1476 1479 1482 1485 1488 1490 1492 1495 1497 1499 1501 1503 1505 1507 1508 1509 1511 1512 1514 1516 1518 1519 1519 1520 1520 1520 1521 1522 1522 1523 1523 1523 1524 1525 1527 1528 1529 1530 1530 1531 1532 1533 1533 1533
1447 1450 1450 1450 1453 1457 1458 1457 1454 1455 1461 1460 1453 1452 1455 1454 1456 1457 1459 1463 1461 1464 1474 1468 1465 1480 1483 1466 1456 1457 1459 1459 1458 1457 1457 1458 1461 1463 1465 1469 1472 1475 1478 1480 1483 1486 1488 1490 1492 1493 1495 1498 1500 1502 1503 1504 1506 1507 1509 1511 1513 1516 1518 1519 1520 1519 1520 1520 1520 1521 1521 1521 1522 1522 1523 1524 1526 1527 1528 1529 1530 1531 1532 1533 1533 1533
1445 1446 1447 1448 1453 1455 1454 1452 1451 1453 1456 1453 1450 1452 1453 1454 1455 1457 1462 1464 1464 1473 1482 1473 1467 1482 1485 1467 1460 1462 1461 1460 1459 1458 1459 1461 1463 1465 1468 1471 1473 1475 1478 1480 1482 1484 1486 1488 1490 1493 1495 1497 1499 1500 1502 1503 1505 1506 1507 1508 1511 1515 1519 1520 1520 1520 1519 1519 1519 1520 1520 1520 1521 1521 1522 1524 1525 1526 1527 1528 1530 1531 1532 1533 1533 1534
1442 1443 1444 1445 1449 1450 1450 1450 1450 1450 1450 1449 1450 1453 1455 1457 1457 1460 1462 1462 1472 1484 1482 1471 1467 1478 1487 1474 1463 1463 1460 1458 1457 1458 1459 1461 1465 1467 1469 1472 1473 1475 1477 1479 1481 1483 1485 1487 1489 1491 1493 1495 1497 1498 1500 1502 1503 1505 1505 1505 1509 1515 1518 1519 1520 1520 1519 1519 1519 1519 1519 1519 1520 1520 1521 1523 1524 1525 1526 1528 1529 1531 1532 1533 1533 1534
1443 1445 1445 1443 1444 1446 1448 1450 1449 1447 1446 1448 1453 1457 1463 1466 1464 1468 1469 1468 1484 1491 1478 1470 1468 1476 1488 1480 1464 1459 1456 1454 1456 1457 1459 1462 1465 1467 1470 1472 1474 1476 1478 1479 1482 1484 1486 1488 1489 1490 1492 1493 1495 1496 1498 1500 1501 1503 1505 1505 1507 1513 1517 1518 1519 1519 1519 1519 1518 1518 1519 1519 1519 1519 1520 1521 1523 1524 1525 1527 1529 1530 1531 1532 1533 1534
1447 1446 1444 1443 1443 1444 1449 1452 1452 1449 1447 1449 1454 1461 1473 1481 1481 1484 1484 1481 1489 1488 1474 1470 1474 1479 1484 1474 1462 1457 1454 1454 1455 1455 1458 1461 1464 1466 1469 1472 1474 1476 1478 1479 1482 1485 1486 1488 1489 1490 1491 1492 1493 1495 1496 1498 1499 1501 1504 1505 1506 1510 1515 1517 1518 1519 1519 1519 1519 1518 1518 1519 1519 1519 1520 1521 1522 1524 1525 1526 1528 1529 1531 1532 1533 1534
1455 1448 1442 1444 1445 1444 1447 1453 1457 1456 1452 1454 1457 1463 1476 1487 1494 1498 1494 1489 1491 1486 1473 1469 1476 1484 1481 1470 1461 1458 1455 1456 1456 1456 1460 1462 1464 1467 1469 1471 1473 1475 1478 1480 1482 1484 1486 1488 1489 1489 1490 1491 1492 1493 1494 1496 1498 1500 1503 1506 1506 1508 1513 1517 1517 1518 1519 1519 1519 1519 1519 1519 1519 1519 1520 1521 1522 1524 1525 1526 1528 1530 1531 1532 1534 1535
1465 1462 1448 1445 1447 1445 1445 1448 1453 1453 1453 1454 1451 1457 1468 1475 1486 1496 1494 1494 1496 1488 1477 1473 1480 1488 1483 1471 1462 1457 1457 1458 1459 1459 1461 1463 1465 1468 1470 1472 1474 1476 1478 1480 1482 1484 1485 1487 1488 1488 1489 1490 1490 1491 1493 1494 1496 1498 1501 1504 1505 1506 1511 1516 1517 1517 1519 1520 1521 1520 1519 1519 1519 1520 1520 1522 1523 1524 1525 1526 1528 1529 1531 1532 1534 1535
1462 1462 1446 1440 1443 1443 1445 1444 1443 1448 1455 1454 1448 1454 1464 1463 1469 1480 1484 1484 1486 1488 1484 1479 1480 1480 1475 1468 1460 1457 1458 1459 1461 1462 1463 1467 1468 1470 1473 1474 1476 1478 1480 1482 1484 1485 1486 1486 1487 1487 1487 1488 1489 1490 1492 1493 1495 1497 1499 1502 1504 1505 1510 1516 1517 1517 1520 1521 1522 1521 1520 1519 1519 1520 1521 1522 1523 1524 1525 1526 1527 1529 1531 1532 1534 1535
1462 1458 1443 1440 1441 1439 1442 1443 1441 1448 1456 1455 1454 1458 1457 1452 1457 1472 1480 1476 1479 1491 1489 1480 1479 1476 1472 1469 1461 1458 1460 1460 1462 1463 1465 1469 1470 1472 1475 1477 1479 1481 1482 1484 1486 1486 1487 1487 1487 1488 1487 1488 1489 1490 1492 1494 1495 1496 1497 1499 1501 1504 1509 1514 1516 1520 1522 1523 1523 1523 1522 1521 1519 1520 1520 1522 1523 1524 1525 1526 1527 1528 1530 1531 1533 1535
1459 1460 1447 1442 1445 1440 1439 1442 1441 1443 1449 1455 1459 1457 1451 1451 1455 1465 1479 1482 1486 1495 1488 1476 1478 1480 1480 1476 1465 1460 1462 1462 1463 1464 1466 1470 1471 1473 1477 1479 1481 1483 1485 1486 1487 1487 1487 1487 1487 1488 1489 1490 1491 1492 1492 1493 1494 1496 1497 1498 1501 1504 1508 1512 1516 1518 1519 1520 1521 1523 1524 1523 1521 1520 1520 1522 1523 1525 1525 1526 1527 1528 1529 1531 1532 1534
1454 1462 1453 1441 1444 1442 1437 1443 1448 1445 1444 1450 1454 1450 1453 1465 1468 1468 1478 1486 1491 1496 1490 1478 1475 1479 1483 1480 1471 1466 1465 1465 1464 1465 1467 1470 1471 1474 1477 1480 1482 1484 1486 1487 1486 1487 1487 1487 1488 1488 1489 1490 1491 1492 1493 1494 1494 1495 1496 1497 1499 1503 1507 1510 1512 1512 1513 1514 1516 1520 1523 1523 1522 1521 1521 1521 1523 1525 1526 1526 1527 1528 1529 1530 1531 1533
1451 1464 1463 1447 1442 1445 1443 1447 1454 1453 1447 1447 1450 1449 1452 1462 1469 1469 1471 1477 1484 1491 1491 1484 1481 1484 1483 1478 1474 1470 1466 1467 1469 1467 1468 1470 1472 1474 1478 1481 1483 1485 1487 1487 1486 1487 1488 1488 1488 1488 1489 1489 1490 1491 1492 1493 1494 1495 1495 1495 1496 1499 1502 1505 1507 1508 1509 1510 1512 1516 1520 1522 1522 1522 1521 1521 1523 1524 1525 1527 1527 1528 1529 1530 1531 1533
1451 1462 1467 1455 1447 1451 1454 1452 1453 1453 1452 1453 1457 1459 1459 1460 1464 1469 1470 1469 1474 1485 1490 1491 1494 1492 1479 1472 1473 1470 1466 1469 1470 1470 1472 1473 1473 1475 1478 1480 1483 1485 1487 1487 1487 1488 1488 1489 1489 1489 1489 1489 1490 1491 1491 1492 1492 1493 1494 1494 1495 1497 1499 1502 1504 1505 1507 1509 1510 1513 1517 1520 1521 1522 1521 1522 1522 1524 1525 1526 1527 1529 1529 1530 1531 1532
1457 1462 1467 1464 1459 1460 1458 1450 1447 1449 1450 1453 1456 1459 1461 1462 1468 1482 1487 1477 1471 1478 1485 1491 1498 1491 1475 1470 1471 1468 1467 1469 1470 1472 1476 1476 1476 1477 1479 1480 1483 1485 1487 1488 1488 1488 1489 1489 1489 1489 1490 1490 1491 1491 1492 1492 1493 1492 1493 1493 1494 1496 1497 1500 1503 1505 1508 1510 1511 1513 1515 1517 1519 1520 1521 1521 1522 1523 1525 1526 1527 1528 1529 1530 1530 1530
1458 1461 1466 1468 1464 1461 1455 1448 1447 1448 1447 1448 1451 1453 1456 1460 1466 1482 1492 1484 1474 1474 1476 1483 1491 1485 1473 1470 1470 1469 1470 1470 1470 1473 1475 1477 1478 1478 1480 1482 1484 1486 1487 1488 1489 1489 1489 1489 1490 1490 1490 1491 1492 1492 1493 1493 1493 1493 1493 1493 1494 1496 1498 1500 1502 1506 1508 1509 1511 1512 1513 1515 1517 1519 1520 1521 1522 1524 1524 1525 1526 1527 1528 1529 1530 1530
1458 1461 1468 1470 1464 1459 1454 1449 1447 1447 1448 1452 1452 1451 1454 1459 1463 1469 1475 1474 1474 1475 1476 1483 1491 1485 1474 1471 1471 1472 1473 1472 1472 1473 1474 1478 1479 1480 1482 1484 1486 1487 1488 1489 1490 1490 1490 1490 1490 1490 1491 1491 1492 1493 1494 1494 1494 1495 1495 1495 1495 1497 1499 1500 1502 1505 1506 1508 1510 1511 1512 1513 1516 1518 1519 1520 1522 1524 1525 1525 1525 1526 1527 1528 1530 1530
1462 1464 1469 1475 1477 1473 1466 1462 1459 1456 1457 1460 1459 1456 1456 1457 1460 1464 1467 1470 1476 1477 1475 1484 1493 1486 1475 1472 1471 1473 1474 1475 1476 1476 1476 1479 1480 1481 1483 1485 1487 1489 1489 1490 1491 1491 1491 1491 1491 1491 1491 1492 1493 1493 1494 1495 1495 1496 1496 1497 1497 1498 1500 1502 1503 1505 1506 1508 1510 1511 1511 1512 1515 1516 1517 1518 1519 1520 1522 1523 1522 1523 1525 1527 1529 1530
1464 1466 1469 1477 1485 1486 1481 1478 1474 1468 1465 1464 1462 1460 1458 1458 1461 1465 1469 1476 1483 1480 1475 1481 1490 1485 1476 1473 1473 1473 1475 1478 1479 1479 1480 1481 1482 1483 1484 1486 1488 1489 1490 1491 1491 1492 1492 1491 1492 1492 1492 1493 1493 1494 1494 1495 1496 1497 1497 1498 1499 1500 1501 1503 1504 1506 1507 1508 1509 1511 1511 1511 1513 1515 1516 1516 1516 1518 1520 1520 1519 1519 1521 1524 1527 1529
1464 1467 1468 1473 1479 1481 1479 1475 1470 1468 1469 1469 1466 1463 1462 1462 1463 1467 1473 1479 1482 1482 1480 1479 1482 1483 1480 1476 1475 1474 1475 1478 1481 1482 1483 1483 1484 1485 1486 1488 1489 1489 1490 1490 1491 1493 1493 1493 1493 1493 1493 1494 1494 1495 1495 1496 1497 1497 1498 1499 1500 1501 1502 1503 1504 1505 1507 1508 1509 1510 1510 1511 1512 1513 1514 1515 1516 1517 1518 1518 1517 1516 1518 1521 1523 1525
1467 1470 1469 1470 1472 1472 1471 1469 1466 1466 1468 1468 1467 1465 1464 1464 1465 1470 1476 1477 1475 1481 1485 1478 1475 1481 1482 1477 1477 1476 1475 1477 1481 1482 1483 1484 1486 1487 1487 1489 1489 1490 1490 1490 1491 1492 1492 1494 1494 1494 1495 1495 1495 1495 1496 1496 1497 1498 1499 1500 1500 1501 1502 1503 1504 1505 1507 1508 1508 1509 1510 1510 1511 1512 1513 1514 1514 1515 1516 1515 1515 1515 1516 1518 1520 1522
1467 1472 1469 1469 1471 1469 1468 1468 1467 1467 1467 1466 1466 1467 1466 1466 1468 1471 1473 1472 1471 1478 1482 1476 1474 1479 1480 1477 1476 1477 1476 1477 1479 1481 1482 1483 1485 1486 1487 1488 1489 1489 1490 1490 1491 1492 1492 1494 1494 1495 1496 1496 1496 1497 1497 1497 1498 1499 1500 1500 1501 1502 1503 1504 1504 1505 1506 1507 1508 1509 1509 1510 1511 1512 1513 1513 1513 1514 1514 1514 1514 1515 1515 1517 1518 1519
1465 1471 1469 1469 1472 1472 1471 1471 1470 1469 1468 1466 1466 1466 1466 1468 1470 1471 1472 1472 1471 1474 1476 1476 1477 1480 1481 1479 1477 1476 1477 1478 1479 1481 1484 1485 1485 1485 1486 1488 1489 1490 1490 1490 1490 1491 1492 1494 1495 1496 1497 1497 1498 1498 1499 1499 1499 1500 1500 1501 1502 1503 1503 1504 1505 1505 1506 1507 1508 1509 1509 1510 1511 1511 1512 1512 1512 1512 1513 1513 1514 1514 1515 1516 1517 1518
1466 1470 1468 1469 1475 1477 1474 1472 1471 1471 1471 1471 1469 1468 1468 1470 1471 1472 1474 1475 1475 1478 1477 1477 1480 1483 1482 1480 1477 1477 1477 1477 1479 1482 1484 1486 1488 1487 1486 1487 1488 1489 1491 1492 1491 1491 1491 1493 1495 1496 1497 1498 1499 1499 1500 1501 1501 1501 1502 1502 1503 1503 1504 1504 1505 1505 1506 1506 1507 1508 1509 1509 1510 1510 1511 1511 1511 1512 1512 1513 1514 1514 1515 1515 1516 1516
1468 1470 1469 1471 1480 1482 1475 1474 1474 1473 1475 1476 1474 1472 1472 1472 1474 1475 1476 1476 1478 1480 1480 1480 1485 1488 1484 1480 1479 1478 1477 1479 1481 1483 1483 1486 1487 1487 1488 1489 1489 1488 1489 1490 1490 1489 1490 1492 1493 1495 1496 1497 1499 1499 1500 1501 1501 1502 1503 1503 1504 1504 1504 1505 1505 1506 1506 1506 1507 1507 1507 1508 1508 1509 1509 1510 1510 1511 1512 1512 1513 1513 1513 1514 1514 1515
1467 1470 1471 1474 1482 1482 1475 1475 1476 1477 1482 1483 1478 1475 1474 1473 1474 1476 1478 1479 1478 1479 1482 1486 1489 1488 1483 1481 1481 1480 1480 1481 1482 1484 1485 1486 1486 1487 1489 1490 1490 1489 1487 1487 1487 1487 1488 1490 1490 1492 1495 1496 1497 1499 1500 1500 1501 1502 1503 1504 1504 1504 1505 1505 1505 1506 1506 1506 1506 1506 1506 1507 1507 1508 1508 1509 1509 1510 1510 1511 1511 1512 1512 1512 1512 1513
1466 1469 1471 1473 1480 1482 1477 1475 1479 1486 1491 1488 1480 1477 1477 1474 1474 1476 1480 1483 1482 1481 1483 1486 1487 1486 1484 1484 1484 1483 1483 1483 1484 1485 1486 1487 1487 1488 1489 1490 1490 1489 1488 1488 1489 1488 1488 1489 1490 1491 1494 1495 1497 1498 1500 1500 1501 1502 1503 1504 1504 1504 1505 1505 1505 1505 1506 1505 1506 1506 1506 1506 1506 1507 1507 1507 1508 1508 1509 1509 1510 1510 1511 1511 1511 1511
1466 1468 1471 1472 1477 1481 1478 1480 1489 1494 1490 1482 1479 1479 1478 1476 1476 1476 1480 1485 1485 1484 1485 1486 1488 1487 1487 1487 1487 1486 1486 1485 1486 1487 1488 1488 1489 1488 1489 1490 1490 1490 1490 1491 1491 1490 1489 1490 1491 1492 1493 1494 1496 1498 1499 1500 1501 1502 1503 1503 1504 1504 1505 1505 1505 1505 1505 1505 1505 1505 1505 1505 1505 1506 1506 1506 1507 1507 1507 1508 1508 1509 1509 1509 1509 1509
1465 1468 1470 1471 1475 1480 1481 1486 1493 1490 1479 1477 1481 1481 1479 1480 1480 1478 1483 1489 1489 1487 1488 1489 1490 1490 1489 1489 1489 1488 1487 1486 1486 1487 1489 1490 1489 1489 1490 1491 1491 1492 1492 1493 1493 1493 1492 1493 1493 1493 1493 1495 1496 1497 1498 1499 1500 1501 1501 1502 1503 1503 1504 1504 1504 1504 1504 1504 1504 1504 1504 1505 1505 1505 1505 1505 1505 1506 1506 1506 1507 1507 1507 1507 1507 1507
1461 1465 1469 1471 1474 1478 1482 1485 1486 1483 1480 1484 1487 1486 1484 1486 1486 1484 1487 1493 1493 1490 1490 1490 1490 1490 1490 1489 1489 1489 1487 1486 1487 1488 1490 1490 1490 1490 1491 1492 1492 1493 1494 1494 1495 1495 1495 1496 1496 1495 1495 1496 1496 1497 1497 1498 1498 1499 1500 1501 1501 1502 1503 1503 1503 1504 1504 1504 1504 1504 1504 1504 1504 1504 1504 1504 1504 1504 1505 1505 1505 1505 1506 1506 1506 1506
1458 1461 1465 1470 1474 1475 1479 1485 1487 1487 1490 1492 1492 1490 1488 1487 1487 1485 1487 1494 1495 1492 1491 1491 1491 1491 1491 1490 1490 1489 1488 1489 1491 1492 1491 1492 1492 1492 1491 1492 1493 1493 1494 1495 1496 1496 1497 1498 1497 1496 1496 1496 1496 1496 1496 1497 1497 1497 1498 1500 1500 1501 1501 1501 1502 1502 1503 1503 1503 1503 1503 1503 1503 1503 1503 1503 1503 1503 1503 1503 1503 1504 1504 1504 1504 1504
1458 1462 1463 1467 1471 1474 1479 1486 1489 1490 1494 1496 1494 1491 1488 1487 1486 1485 1489 1497 1498 1494 1493 1493 1492 1492 1492 1491 1492 1491 1491 1494 1496 1495 1493 1493 1492 1492 1492 1492 1492 1493 1494 1494 1495 1495 1496 1496 1496 1496 1495 1495 1495 1495 1496 1496 1496 1496 1497 1498 1499 1500 1500 1500 1500 1501 1501 1501 1501 1501 1501 1501 1501 1501 1501 1501 1502 1502 1502 1502 1502 1502 1502 1502 1502 1502
1463 1467 1468 1470 1473 1474 1478 1484 1488 1492 1497 1498 1495 1492 1489 1488 1486 1487 1496 1502 1499 1495 1495 1495 1494 1494 1493 1493 1493 1493 1494 1497 1497 1495 1494 1493 1493 1492 1493 1493 1493 1493 1492 1493 1494 1494 1494 1495 1495 1495 1494 1494 1494 1494 1494 1495 1494 1495 1495 1496 1497 1498 1498 1499 1499 1499 1499 1499 1499 1499 1500 1500 1500 1500 1500 1500 1500 1500 1500 1500 1499 1499 1499 1500 1500 1500
1471 1473 1474 1476 1477 1477 1478 1482 1488 1496 1501 1498 1494 1493 1490 1488 1489 1495 1503 1503 1498 1496 1497 1495 1495 1495 1494 1494 1495 1495 1496 1496 1496 1495 1494 1494 1493 1493 1493 1493 1493 1493 1492 1492 1492 1492 1492 1493 1493 1493 1493 1493 1493 1493 1493 1493 1493 1493 1493 1494 1494 1495 1496 1496 1497 1497 1497 1497 1497 1497 1497 1497 1498 1498 1497 1498 1498 1498 1498 1498 1497 1497 1497 1497 1497 1497
1479 1480 1479 1479 1480 1482 1484 1485 1490 1499 1502 1498 1496 1494 1491 1494 1501 1503 1502 1500 1498 1498 1497 1496 1496 1496 1495 1495 1495 1495 1495 1495 1494 1494 1494 1493 1493 1493 1493 1493 1493 1492 1492 1491 1491 1491 1491 1491 1491 1491 1491 1491 1491 1491 1491 1491 1491 1491 1491 1491 1491 1492 1493 1493 1494 1494 1495 1495 1495 1495 1495 1495 1495 1495 1495 1495 1495 1495 1496 1496 1495 1495 1495 1495 1495 1494
1482 1484 1484 1484 1484 1485 1487 1490 1496 1502 1501 1497 1497 1497 1495 1499 1504 1501 1498 1498 1499 1498 1497 1497 1497 1496 1496 1496 1495 1495 1494 1494 1493 1493 1493 1493 1492 1492 1492 1492 1492 1491 1491 1490 1490 1490 1489 1489 1488 1488 1488 1488 1488 1488 1488 1488 1488 1488 1488 1488 1488 1489 1490 1490 1491 1491 1491 1492 1492 1492 1492 1493 1493 1493 1493 1493 1493 1493 1493 1493 1493 1493 1492 1493 1492 1492
1486 1488 1489 1490 1490 1490 1494 1498 1501 1501 1498 1496 1499 1500 1499 1500 1500 1498 1498 1499 1498 1498 1498 1497 1497 1496 1496 1495 1495 1495 1494 1493 1493 1493 1492 1491 1491 1491 1491 1491 1490 1489 1489 1488 1488 1488 1487 1487 1486 1486 1485 1485 1485 1485 1485 1485 1485 1484 1484 1484 1485 1486 1486 1487 1488 1488 1488 1488 1489 1489 1490 1490 1490 1491 1491 1490 1491 1490 1490 1490 1490 1490 1490 1490 1490 1490
1492 1491 1490 1491 1491 1492 1496 1498 1497 1496 1496 1496 1498 1498 1499 1499 1499 1499 1499 1499 1498 1498 1498 1497 1496 1496 1495 1495 1494 1494 1493 1493 1492 1492 1491 1490 1490 1490 1489 1488 1488 1487 1486 1485 1485 1485 1485 1484 1483 1483 1482 1481 1481 1481 1481 1481 1481 1481 1481 1481 1482 1482 1483 1483 1484 1484 1485 1485 1486 1486 1487 1487 1487 1488 1488 1488 1488 1487 1487 1487 1487 1487 1487 1487 1487 1487
1492 1489 1489 1490 1491 1492 1493 1493 1494 1495 1496 1496 1497 1498 1499 1500 1500 1499 1499 1499 1499 1498 1497 1497 1496 1495 1494 1494 1493 1492 1492 1492 1491 1490 1490 1489 1488 1488 1487 1486 1485 1485 1483 1483 1482 1482 1482 1481 1480 1479 1478 1478 1477 1477 1477 1477 1477 1477 1477 1477 1478 1478 1479 1480 1480 1481 1481 1482 1482 1483 1484 1484 1484 1485 1485 1485 1484 1484 1483 1484 1484 1484 1484 1484 1485 1485
1491 1489 1490 1491 1492 1494 1495 1495 1496 1497 1497 1497 1497 1497 1498 1499 1500 1500 1500 1499 1498 1498 1497 1496 1495 1494 1493 1493 1492 1491 1491 1490 1489 1488 1487 1486 1486 1485 1484 1483 1482 1481 1481 1480 1479 1479 1478 1478 1477 1476 1475 1474 1474 1474 1473 1473 1473 1473 1473 1473 1474 1475 1476 1476 1477 1477 1478 1478 1479 1480 1480 1480 1481 1481 1482 1482 1481 1481 1480 1481 1481 1482 1482 1482 1483 1483
1491 1491 1492 1493 1493 1495 1497 1498 1498 1498 1497 1497 1498 1498 1498 1498 1499 1499 1498 1498 1497 1496 1496 1495 1494 1493 1492 1491 1491 1490 1488 1488 1487 1486 1485 1484 1483 1482 1482 1481 1480 1479 1478 1477 1476 1476 1475 1474 1473 1473 1472 1471 1471 1470 1470 1470 1469 1469 1470 1470 1471 1471 1472 1472 1473 1473 1474 1475 1476 1476 1477 1477 1478 1478 1479 1478 1478 1478 1478 1478 1479 1480 1480 1481 1481 1481
1491 1493 1495 1496 1495 1496 1498 1499 1498 1497 1497 1497 1498 1499 1499 1499 1498 1497 1497 1496 1495 1494 1494 1493 1492 1492 1491 1490 1489 1487 1486 1485 1484 1483 1482 1481 1480 1480 1479 1478 1477 1476 1475 1474 1473 1472 1471 1470 1470 1469 1468 1467 1467 1467 1466 1466 1465 1465 1465 1466 1467 1467 1467 1468 1469 1469 1470 1471 1472 1473 1474 1474 1475 1475 1475 1475 1475 1475 1476 1476 1476 1477 1478 1478 1479 1479
1494 1497 1499 1499 1500 1502 1503 1502 1501 1501 1501 1500 1500 1500 1500 1499 1498 1497 1496 1495 1494 1493 1492 1491 1490 1489 1489 1488 1487 1485 1484 1483 1482 1481 1480 1478 1477 1477 1476 1475 1474 1472 1471 1470 1469 1468 1468 1467 1466 1465 1464 1463 1463 1463 1462 1462 1461 1461 1461 1462 1462 1463 1463 1464 1464 1465 1466 1467 1469 1470 1470 1471 1471 1471 1471 1471 1472 1473 1473 1473 1474 1475 1475 1476 1476 1477
1498 1500 1500 1502 1504 1505 1503 1503 1503 1503 1503 1502 1501 1501 1500 1499 1497 1496 1495 1495 1494 1492 1491 1490 1489 1488 1486 1486 1485 1484 1482 1480 1479 1478 1476 1475 1474 1473 1472 1471 1470 1468 1467 1467 1466 1465 1464 1464 1463 1462 1461 1459 1459 1458 1458 1457 1457 1457 1457 1457 1458 1458 1459 1460 1460 1461 1462 1463 1465 1466 1467 1467 1468 1467 1467 1468 1469 1470 1470 1470 1471 1472 1473 1473 1474 1474